Location: Drocourt
(49.0571°N, 1.7669°E)
Time: 23:18:52
(UTC+00:00)

Cosmos 1980 - Pass Details

Date: 09 February 2023
Orbit: 838 x 848 km, 71.0° (Epoch: 01 April)

Event Time Altitude Azimuth Distance (km) Brightness Sun altitude
Rises 18:36:24 0° 177° (S) 3,376 6.9 -15.7°
Reaches altitude 10° 18:39:01 10° 168° (SSE) 2,446 6.0 -16.1°
Maximum altitude 18:43:59 33° 106° (ESE) 1,367 4.3 -17.0°
Enters shadow 18:45:46 27° 72° (ENE) 1,553 4.5 -17.2°
